Lexington Weather

Lexington, Massachusetts, USA

72°F
9/22/2021 2:27pm 
  • Lexington Conditions: Light rain, Mist, Overcast
  • Temperature: 71.8°F / 22.1°CColder 3.0°F than last hour.
  • Dew Point: 69.1°FIncreased 0.9°Fsince last hour.
  • Relative Humidity: 91%Increased 11.0% since last hour.
  • Wind: Wind from W W 4 mph, 10-min avg: 4 mph, gust: 13 mph
  • Barometer: 30.08 inFalling 0.02  inHg/hr Falling Slowly
  • Visibility: 2 miles
  • Rain Today: 0.00 in
  •   

Regional Weather Roundup
for Boston / Norton, MA

        
000
ASUS41 KBOX 160304
RWRBOX

REGIONAL WEATHER ROUNDUP
NATIONAL WEATHER SERVICE BOSTON/NORTON MA
1100 PM EDT WED SEP 15 2021

NOTE:  "FAIR" INDICATES FEW OR NO CLOUDS BELOW 12,000 FEET WITH NO 
SIGNIFICANT WEATHER AND/OR OBSTRUCTIONS TO VISIBILITY.

MAZALL-160400-
EASTERN MASSACHUSETTS
  
CITY           SKY/WX    TMP DP  RH WIND       PRES   REMARKS
BOSTON         MOCLDY    77  69  76 SW9       30.03S                  
BEVERLY        MOCLDY    72  34  24 NW5       30.03R                  
LAWRENCE       MOCLDY    69  68  96 CALM      30.06R                  
BEDFORD        MOCLDY    69  69 100 CALM      30.03R                  
BLUE HILL      NOT AVBL                                               
NORWOOD        MOCLDY    75  69  81 SW6       30.04R                  
MARSHFIELD     PTCLDY    73  68  83 SW7G14    30.04R                  
PLYMOUTH       MOCLDY    72  69  90 W7        30.06R                  
TAUNTON        MOCLDY    73  69  87 SW6       30.05R                  
NEW BEDFORD    MOCLDY    74  71  91 SW12      30.05S                  
$$

MAZALL-160400-
CAPE COD AND THE ISLANDS
  
CITY           SKY/WX    TMP DP  RH WIND       PRES   REMARKS
FALMOUTH       MOCLDY    73  72  94 SW20G29   30.07R                  
HYANNIS        MOCLDY    74  73  97 SW13      30.06R                  
CHATHAM        CLOUDY    73  72  96 SW7       30.08R                  
PROVINCETOWN   MOCLDY    71  70  96 SW15      30.05S                  
NANTUCKET      PTCLDY    73  71  93 S13       30.08S                  
MARTHAS VNYRD  MOCLDY    72  72 100 S10       30.07R                  
$$
 
MAZALL-160400-
CENTRAL AND WESTERN MASSACHUSETTS
  
CITY           SKY/WX    TMP DP  RH WIND       PRES   REMARKS
WORCESTER      MOCLDY    67  63  87 W7        30.08S                  
FITCHBURG      CLOUDY    68  66  93 CALM      30.06R                  
ORANGE         CLOUDY    68  67  96 S3        30.07S                  
SPRINGFIELD    MOCLDY    67  67 100 CALM      30.05R                  
WESTFIELD      MOCLDY    69  68  96 W3        30.06R                  
NORTH ADAMS    LGT RAIN  66  64  93 CALM      30.09R                  
PITTSFIELD     LGT RAIN  65  64  97 W6        30.09R                  
$$
 
RIZALL-160400-
RHODE ISLAND
  
CITY           SKY/WX    TMP DP  RH WIND       PRES   REMARKS
PROVIDENCE     MOCLDY    74  70  87 NW7       30.06R                  
NEWPORT        CLOUDY    72  71  97 SW8G18    30.06S                  
BLOCK ISLAND   PTCLDY    71  69  93 SW15      30.07S                  
SMITHFIELD     LGT RAIN  72  69  90 SW5       30.07S                  
WESTERLY       PTCLDY    71  71 100 S7        30.06S                  
$$
 
CTZALL-160400-
CONNECTICUT
  
CITY           SKY/WX    TMP DP  RH WIND       PRES   REMARKS
BRADLEY INTL   MOCLDY    70  65  84 CALM      30.06R                  
HARTFORD       CLOUDY    71  68  90 SE3       30.05R                  
BRIDGEPORT     CLOUDY    77  69  76 CALM      30.04S                  
DANBURY        MOCLDY    70  67  90 S3        30.08R                  
GROTON         PTCLDY    73  71  93 SW7       30.05R                  
NEW HAVEN      CLOUDY    77  71  82 S7        30.04R                  
CHESTER        CLOUDY    73  70  88 CALM      30.07S                  
MERIDEN        CLOUDY    70  67  90 W3        30.05R                  
WILLIMANTIC    CLOUDY    71  69  93 CALM      30.07R                  
OXFORD         MOCLDY    69  65  86 N6        30.09R                  
$$

MEZ002-015-021-024-NHZ003-005-008-011-012-014-VTZ005-008-160400-
NORTHERN NEW ENGLAND
  
CITY           SKY/WX    TMP DP  RH WIND       PRES   REMARKS
PORTLAND ME    CLOUDY    67  66  97 W8        30.02R                  
BANGOR ME      LGT RAIN  66  64  93 SW3       30.01R FOG              
CONCORD NH     LGT RAIN  66  65  96 SW3       30.04R                  
MANCHESTER NH  CLOUDY    69  66  90 SW5       30.04R                  
NASHUA NH      CLOUDY    67  67 100 CALM      30.06R                  
PORTSMOUTH NH  MOCLDY    68  66  94 SW3       30.03R                  
JAFFREY NH     CLOUDY    67  67 100 S3        30.08S                  
KEENE NH       LGT RAIN  67  66  97 CALM      30.06R                  
BURLINGTON VT  CLOUDY    61  56  83 N5        30.09R                  
MT. WASHINGTON LGT RAIN  46  46 100 W18         N/A  VSB 0            
$$

NYZ052-076-160400-
EASTERN NEW YORK
  
CITY           SKY/WX    TMP DP  RH WIND       PRES   REMARKS
ALBANY         LGT RAIN  62  62 100 S5        30.09R                  
NEW YORK CITY  MOCLDY    78  64  61 NE9       30.03R                  
$$
 
ANZALL-160400-
MARINE OBSERVATIONS
  
STATION/POSITION TIME  TEMP    WIND        PRES    VSBY  WAVE
                       AIR SEA DIR/SP/G                  HT/PER
                 (UTC) (F)     (DEG/KT/KT) (MB)    (MI)  (FT/S)
BOSTON BUOY      0240      65  210/  8/ 10 1017.1F
BUZZARDS BAY     0200          210/ 18/ 20 1018.6R
NANTUCKET SOUND  0240   74 72  210/ 16/ 17 1018.1R
MASS BAY-STELLWA 0204   68     190/  8/ 10 1015.9R  1 7/8  2/ 5
ISLE OF SHOALS   0200   70     280/ 12/ 13 1015.7R
S OF BLOCK IS    0226      70                N/A           4/ 6
$$

......................KEY.........................
  SKY/WX - SKY CONDITION/PRESENT WEATHER
  TMP    - TEMPERATURE IN FAHRENHEIT
  DWPT   - DEWPOINT IN FAHRENHEIT
  RH     - RELATIVE HUMIDITY IN PERCENT
  WIND   - DIRECTION AND SPEED IN MPH
  PRES   - MEAN SEA LEVEL PRESSURE IN INCHES OF HG
  WCI    - WIND CHILL INDEX
  VSB    - VISIBILITY IN MILES
  HX     - HEAT INDEX
  TC     - TEMPERATURE IN CELSIUS
  VRB    - VARIABLE WIND DIRECTION
  N/A    - NOT AVAILABLE
  
      

Other recent Regional Weather Roundups

Wed Sep 22, 2:04pm

Wed Sep 22, 1:04pm

Wed Sep 22, 12:05pm

Wed Sep 22, 11:04am

Wed Sep 22, 10:04am

Wed Sep 22, 9:04am

Wed Sep 22, 8:04am

Wed Sep 22, 7:04am

Wed Sep 22, 6:04am

Wed Sep 22, 5:04am

Wed Sep 22, 4:04am

Wed Sep 22, 3:04am

Wed Sep 22, 2:04am

Wed Sep 22, 1:04am

Wed Sep 22, 12:04am

Tue Sep 21, 11:04pm

Tue Sep 21, 10:04pm

Tue Sep 21, 9:04pm

Tue Sep 21, 8:04pm

Tue Sep 21, 7:04pm

Tue Sep 21, 6:04pm

Tue Sep 21, 5:04pm

Tue Sep 21, 4:04pm

Tue Sep 21, 3:04pm

Tue Sep 21, 2:04pm

Tue Sep 21, 1:04pm

Tue Sep 21, 12:04pm

Tue Sep 21, 11:04am

Tue Sep 21, 10:04am

Tue Sep 21, 9:04am

Tue Sep 21, 8:04am

Tue Sep 21, 7:04am

Tue Sep 21, 6:04am

Tue Sep 21, 5:04am

Tue Sep 21, 4:04am

Tue Sep 21, 3:04am

Tue Sep 21, 2:04am

Tue Sep 21, 1:04am

Tue Sep 21, 12:04am

Mon Sep 20, 11:04pm

Mon Sep 20, 10:04pm

Mon Sep 20, 9:04pm

Mon Sep 20, 8:04pm

Mon Sep 20, 7:04pm

Mon Sep 20, 6:04pm

Mon Sep 20, 5:04pm

Mon Sep 20, 4:04pm

Mon Sep 20, 3:04pm

Mon Sep 20, 2:04pm

Mon Sep 20, 1:04pm

Mon Sep 20, 12:04pm

Mon Sep 20, 11:04am

Mon Sep 20, 10:04am

Mon Sep 20, 9:04am

Mon Sep 20, 7:04am

Mon Sep 20, 6:04am

Mon Sep 20, 5:04am

Mon Sep 20, 4:04am

Mon Sep 20, 3:04am

Mon Sep 20, 2:04am

Mon Sep 20, 1:04am

Mon Sep 20, 12:04am

Sun Sep 19, 11:04pm

Sun Sep 19, 10:04pm

Sun Sep 19, 9:04pm

Sun Sep 19, 8:04pm

Sun Sep 19, 7:04pm

Sun Sep 19, 6:04pm

Sun Sep 19, 5:04pm

Sun Sep 19, 4:04pm

Sun Sep 19, 3:04pm

Sun Sep 19, 2:05pm

Sun Sep 19, 1:04pm

Sun Sep 19, 12:04pm

Sun Sep 19, 11:04am

Sun Sep 19, 10:05am

Sun Sep 19, 9:04am

Sun Sep 19, 8:04am

Sun Sep 19, 7:04am

Sun Sep 19, 6:04am

Sun Sep 19, 5:04am

Sun Sep 19, 4:04am

Sun Sep 19, 3:04am

Sun Sep 19, 2:04am

Sun Sep 19, 1:04am

Sun Sep 19, 12:04am

Sat Sep 18, 11:05pm

Sat Sep 18, 10:04pm

Sat Sep 18, 9:04pm

Sat Sep 18, 8:04pm

Sat Sep 18, 7:04pm

Sat Sep 18, 6:04pm

Sat Sep 18, 5:04pm

Sat Sep 18, 4:04pm

Sat Sep 18, 3:04pm

Sat Sep 18, 2:04pm

Sat Sep 18, 1:04pm

Sat Sep 18, 12:04pm

Sat Sep 18, 11:04am

Sat Sep 18, 10:04am

Sat Sep 18, 9:04am

Sat Sep 18, 8:04am

Sat Sep 18, 7:04am

Sat Sep 18, 6:04am

Sat Sep 18, 5:04am

Sat Sep 18, 4:04am

Sat Sep 18, 3:04am

Sat Sep 18, 2:04am

Sat Sep 18, 1:04am

Sat Sep 18, 12:04am

Fri Sep 17, 11:04pm

Fri Sep 17, 10:04pm

Fri Sep 17, 9:04pm

Fri Sep 17, 8:04pm

Fri Sep 17, 7:04pm

Fri Sep 17, 6:04pm

Fri Sep 17, 5:04pm

Fri Sep 17, 4:04pm

Fri Sep 17, 3:04pm

Fri Sep 17, 2:04pm

Fri Sep 17, 1:04pm

Fri Sep 17, 12:05pm

Fri Sep 17, 11:04am

Fri Sep 17, 10:04am

Fri Sep 17, 9:04am

Fri Sep 17, 8:04am

Fri Sep 17, 7:04am

Fri Sep 17, 6:04am

Fri Sep 17, 5:04am

Fri Sep 17, 4:04am

Fri Sep 17, 3:04am

Fri Sep 17, 2:04am

Fri Sep 17, 1:04am

Fri Sep 17, 12:04am

Thu Sep 16, 11:04pm

Thu Sep 16, 10:04pm

Thu Sep 16, 9:04pm

Thu Sep 16, 8:04pm

Thu Sep 16, 7:04pm

Thu Sep 16, 6:04pm

Thu Sep 16, 5:04pm

Thu Sep 16, 4:04pm

Thu Sep 16, 3:04pm

Thu Sep 16, 2:04pm

Thu Sep 16, 1:05pm

Thu Sep 16, 12:04pm

Thu Sep 16, 11:05am

Thu Sep 16, 10:05am

Thu Sep 16, 9:04am

Thu Sep 16, 8:04am

Thu Sep 16, 7:04am

Thu Sep 16, 6:04am

Thu Sep 16, 5:04am

Thu Sep 16, 4:04am

Thu Sep 16, 3:04am

Thu Sep 16, 2:04am

Thu Sep 16, 1:04am

Thu Sep 16, 12:04am

Wed Sep 15, 10:04pm

Wed Sep 15, 9:04pm

Wed Sep 15, 8:04pm

Wed Sep 15, 7:04pm

Wed Sep 15, 6:04pm

Wed Sep 15, 5:05pm

Wed Sep 15, 4:04pm

Wed Sep 15, 3:04pm

Meta data:

ID: f1306399-55db-4545-b120-ee6d7b6bf07c
Link: https://api.weather.gov/products/f1306399-55db-4545-b120-ee6d7b6bf07c